(341835) = 2005 VB46 = 2008 CB136

Discovered at Mount Lemmon on 2008-02-08 by Mt. Lemmon Survey.

Orbit

Orbit type: Hilda

Note: WebGL enabled browser required.

epoch2024-03-31.0
epoch JD2460400.5
perihelion date2017-05-15.81507
perihelion JD2457889.31507
argument of perihelion (°)16.42077
ascending node (°)200.00453
inclination (°)2.31699
eccentricity0.0955202
perihelion distance (AU)3.5963461
Tisserand w.r.t. Jupiter3.0
ΔV w.r.t. Earth (km/sec)11.4
semimajor axis (AU)3.9761485
mean anomaly (°)312.16819
mean daily motion (°/day)0.12431110
aphelion distance (AU)4.356
period (years)7.93
P-vector [x]-0.80471072
P-vector [y]-0.54912403
P-vector [z]-0.22561794
Q-vector [x]0.59350601
Q-vector [y]-0.75298446
Q-vector [z]-0.28419187
absolute magnitude15.48
phase slope0.15
uncertainty0
referenceMPEC 2024-E109
observations used202
oppositions12
arc length (days)6697
first opposition used2005
last opposition used2024
residual rms (arc-secs)0.71
perturbers coarse indicatorM-v
perturbers precise indicator003Ek
first observation date used2005-11-04.0
last observation date used2024-03-06.0
computer nameMPCLINUX
JD of orbit computation2456639.690544
perihelion JD uncertainty (days)4.7255E-04
argument of perihelion uncertainty (°)1.9044E-04
ascending node uncertainty (°)1.8483E-04
inclination uncertainty (°)8.3627E-06
eccentricity uncertainty 1.2806E-07
perihelion distance uncertainty (AU)4.3401E-07
Minimum Orbit Intersection Distances (in AU)
for orbit epoch: 2460400.5, reference: E2024-FB1
Mercury3.14846
Venus2.87375
Earth2.58951
Mars1.98792
Jupiter0.61036
Saturn4.78201
Uranus14.6509
Neptune25.4683

Observations

211 total observations over interval: 2005 11 04.30865 – 2024 03 06.369446
These data are available for download (format description).

Date (UT) J2000 RA J2000 Dec Magn Location Ref
2005 11 04.30865 03 16 17.08 +16 40 24.3 21.5 V 691 – Steward Observatory, Kitt Peak-Spacewatch MPS 151200
2005 11 04.33365 03 16 16.13 +16 40 20.5 21.7 V 691 – Steward Observatory, Kitt Peak-Spacewatch MPS 151200
2005 11 04.35864 03 16 15.10 +16 40 16.0 21.0 V 691 – Steward Observatory, Kitt Peak-Spacewatch MPS 151200
2005 11 06.33002 03 14 59.92 +16 34 42.8 21.1 V G96 – Mt. Lemmon Survey MPS 151200
2005 11 06.33992 03 14 59.53 +16 34 40.9 21.4 V G96 – Mt. Lemmon Survey MPS 151200
2005 11 06.34981 03 14 59.13 +16 34 39.3 21.8 V G96 – Mt. Lemmon Survey MPS 151200
2005 11 06.35977 03 14 58.77 +16 34 37.8 21.1 V G96 – Mt. Lemmon Survey MPS 151200
2008 02 08.33994 09 37 14.77 +11 24 34.9 21.0 V G96 – Mt. Lemmon Survey MPS 239197
2008 02 08.34644 09 37 14.48 +11 24 36.2 20.8 V G96 – Mt. Lemmon Survey MPS 239197
2008 02 08.35291 09 37 14.23 +11 24 37.8 20.6 V G96 – Mt. Lemmon Survey MPS 239197
2008 02 08.35936 09 37 13.98 +11 24 38.9 20.6 V G96 – Mt. Lemmon Survey MPS 239197
2008 02 12.17302 09 34 43.58 +11 37 54.3 20.8 V 691 – Steward Observatory, Kitt Peak-Spacewatch MPS 239197
2008 02 12.19069 09 34 42.82 +11 37 57.8 20.6 V 691 – Steward Observatory, Kitt Peak-Spacewatch MPS 239197
2008 02 12.20588 09 34 42.22 +11 38 01.9 20.4 V 691 – Steward Observatory, Kitt Peak-Spacewatch MPS 239197
2008 02 27.16695 09 25 09.98 +12 29 53.9 20.8 V 691 – Steward Observatory, Kitt Peak-Spacewatch MPS 240887
2008 02 27.17768 09 25 09.65 +12 29 55.9 20.8 V 691 – Steward Observatory, Kitt Peak-Spacewatch MPS 240887
2008 02 27.18577 09 25 09.33 +12 29 57.6 21.0 V 691 – Steward Observatory, Kitt Peak-Spacewatch MPS 240887
2008 02 27.19649 09 25 08.96 +12 29 59.3 21.1 V 691 – Steward Observatory, Kitt Peak-Spacewatch MPS 240887
2008 02 27.20459 09 25 08.65 +12 30 01.9 21.0 V 691 – Steward Observatory, Kitt Peak-Spacewatch MPS 240887
2008 02 27.21532 09 25 08.28 +12 30 03.9 20.8 V 691 – Steward Observatory, Kitt Peak-Spacewatch MPS 240887
2008 03 01.17467 09 23 25.26 +12 39 45.0 20.8 V 691 – Steward Observatory, Kitt Peak-Spacewatch MPS 240887
2008 03 01.19331 09 23 24.61 +12 39 48.6 20.6 V 691 – Steward Observatory, Kitt Peak-Spacewatch MPS 240887
2008 03 01.21174 09 23 23.99 +12 39 51.6 21.0 V 691 – Steward Observatory, Kitt Peak-Spacewatch MPS 240887
2008 03 04.16543 09 21 46.55 +12 49 10.0 20.9 V 691 – Steward Observatory, Kitt Peak-Spacewatch MPS 240887
2008 03 04.18157 09 21 46.04 +12 49 13.0 20.6 V 691 – Steward Observatory, Kitt Peak-Spacewatch MPS 240887
2008 03 04.19771 09 21 45.48 +12 49 16.6 21.1 V 691 – Steward Observatory, Kitt Peak-Spacewatch MPS 240887
2008 03 08.18448 09 19 43.77 +13 01 10.4   691 – Steward Observatory, Kitt Peak-Spacewatch MPS 242275
2008 03 08.19524 09 19 43.43 +13 01 13.4   691 – Steward Observatory, Kitt Peak-Spacewatch MPS 242275
2008 03 08.20599 09 19 43.13 +13 01 13.9   691 – Steward Observatory, Kitt Peak-Spacewatch MPS 242275
2008 03 10.12466 09 18 49.09 +13 06 38.8 21.3 V 691 – Steward Observatory, Kitt Peak-Spacewatch MPS 242275
2008 03 10.14184 09 18 48.57 +13 06 41.9 21.2 V 691 – Steward Observatory, Kitt Peak-Spacewatch MPS 242275
2008 03 10.15904 09 18 48.11 +13 06 44.7 21.4 V 691 – Steward Observatory, Kitt Peak-Spacewatch MPS 242275
2009 03 16.33142 13 42 27.34 -10 41 31.8 20.7 V 691 – Steward Observatory, Kitt Peak-Spacewatch MPS 280270
2009 03 16.34958 13 42 26.88 -10 41 28.3 20.7 V 691 – Steward Observatory, Kitt Peak-Spacewatch MPS 280270
2009 03 16.36773 13 42 26.36 -10 41 26.1 20.4 V 691 – Steward Observatory, Kitt Peak-Spacewatch MPS 280270
2009 04 27.27450 13 18 37.80 -07 59 44.6 21.0 V G96 – Mt. Lemmon Survey MPS 285726
2009 04 27.27999 13 18 37.62 -07 59 43.5 20.6 V G96 – Mt. Lemmon Survey MPS 285726
2009 04 27.28541 13 18 37.40 -07 59 42.5 20.4 V G96 – Mt. Lemmon Survey MPS 285726
2009 04 27.29081 13 18 37.22 -07 59 41.2 20.5 V G96 – Mt. Lemmon Survey MPS 285726
2009 05 14.23258 13 10 30.90 -07 02 22.4 21.0 V G96 – Mt. Lemmon Survey MPS 286445
2009 05 14.24141 13 10 30.64 -07 02 21.5 20.8 V G96 – Mt. Lemmon Survey MPS 286445
2009 05 14.25023 13 10 30.46 -07 02 20.0 20.9 V G96 – Mt. Lemmon Survey MPS 286445
2009 05 14.25905 13 10 30.25 -07 02 18.7 20.3 V G96 – Mt. Lemmon Survey MPS 286445
2012 10 15.334809 00 41 25.509 +04 49 46.94 21.3 w F51 – Pan-STARRS 1, Haleakala MPS 435187
2012 10 15.353976 00 41 24.841 +04 49 42.29 21.2 w F51 – Pan-STARRS 1, Haleakala MPS 435187
2012 10 15.383116 00 41 23.820 +04 49 35.34 21.4 w F51 – Pan-STARRS 1, Haleakala MPS 435187
2012 10 22.24952 00 37 40.15 +04 23 13.7 21.6 V G96 – Mt. Lemmon Survey MPS 437927
2012 10 22.25519 00 37 39.93 +04 23 12.5 21.6 V G96 – Mt. Lemmon Survey MPS 437927
2012 10 22.26094 00 37 39.68 +04 23 12.0 21.2 V G96 – Mt. Lemmon Survey MPS 437927
2012 10 22.26661 00 37 39.57 +04 23 10.8 21.1 V G96 – Mt. Lemmon Survey MPS 437927
2013 11 24.30079 03 27 24.487 +17 04 00.07 21.3 w F51 – Pan-STARRS 1, Haleakala MPS 489881
2013 11 24.31407 03 27 23.970 +17 03 58.17 21.4 w F51 – Pan-STARRS 1, Haleakala MPS 489881
2013 11 24.32740 03 27 23.437 +17 03 56.20 21.5 w F51 – Pan-STARRS 1, Haleakala MPS 489881
2013 11 24.34073 03 27 22.895 +17 03 54.10 21.6 w F51 – Pan-STARRS 1, Haleakala MPS 489881
2016 02 09.54426 10 09 24.697 +08 46 58.13 21.0 w F51 – Pan-STARRS 1, Haleakala MPS 682195
2016 02 09.57105 10 09 23.690 +08 47 04.05 20.7 w F51 – Pan-STARRS 1, Haleakala MPS 682195
2016 02 09.58458 10 09 23.172 +08 47 06.83 20.9 w F51 – Pan-STARRS 1, Haleakala MPS 682195
2016 02 11.37639 10 08 16.658 +08 53 31.58 21.0 w F51 – Pan-STARRS 1, Haleakala MPS 682195
2016 02 11.38845 10 08 16.192 +08 53 34.23 20.8 w F51 – Pan-STARRS 1, Haleakala MPS 682195
2016 02 11.40011 10 08 15.742 +08 53 36.81 20.9 w F51 – Pan-STARRS 1, Haleakala MPS 682195
2016 02 11.41171 10 08 15.292 +08 53 39.29 20.7 w F51 – Pan-STARRS 1, Haleakala MPS 682195
2016 02 16.37932 10 05 05.86 +09 12 01.3 21.0 V G96 – Mt. Lemmon Survey MPS 685980
2016 02 16.38554 10 05 05.65 +09 12 02.7 20.8 V G96 – Mt. Lemmon Survey MPS 685980
2016 02 16.39641 10 05 05.24 +09 12 05.1 20.6 V G96 – Mt. Lemmon Survey MPS 685980
2016 02 16.40263 10 05 04.98 +09 12 07.0 20.9 V G96 – Mt. Lemmon Survey MPS 685980
2016 02 26.26282 09 58 45.56 +09 49 44.9 21.0 V G96 – Mt. Lemmon Survey MPS 686628
2016 02 26.26801 09 58 45.35 +09 49 46.1 20.9 V G96 – Mt. Lemmon Survey MPS 686628
2016 02 26.27322 09 58 45.14 +09 49 47.1 21.2 V G96 – Mt. Lemmon Survey MPS 686628
2016 02 26.27842 09 58 44.94 +09 49 48.5 21.2 V G96 – Mt. Lemmon Survey MPS 686628
2016 03 07.29425 09 52 43.053 +10 26 52.62 21.0 w F51 – Pan-STARRS 1, Haleakala MPS 692353
2016 03 07.30522 09 52 42.678 +10 26 54.85 21.0 w F51 – Pan-STARRS 1, Haleakala MPS 692353
2017 03 22.45730 14 14 49.741 -13 08 16.64 20.9 w F51 – Pan-STARRS 1, Haleakala MPS 781538
2017 03 22.47064 14 14 49.429 -13 08 14.56 20.8 w F51 – Pan-STARRS 1, Haleakala MPS 781538
2017 03 22.49723 14 14 48.804 -13 08 10.74 20.7 w F51 – Pan-STARRS 1, Haleakala MPS 781538
2017 04 05.46027 14 08 14.929 -12 25 57.94 20.6 i F51 – Pan-STARRS 1, Haleakala MPS 789834
2017 04 05.47130 14 08 14.539 -12 25 55.59 20.4 i F51 – Pan-STARRS 1, Haleakala MPS 789834
2017 04 05.48232 14 08 14.149 -12 25 53.12 20.6 i F51 – Pan-STARRS 1, Haleakala MPS 789834
2017 04 16.37878 14 01 45.66 -11 45 17.2 20.6 V G96 – Mt. Lemmon Survey MPS 792694
2017 04 16.38305 14 01 45.49 -11 45 16.5 20.2 V G96 – Mt. Lemmon Survey MPS 792694
2017 04 16.38731 14 01 45.32 -11 45 15.5 19.9 V G96 – Mt. Lemmon Survey MPS 792694
2017 04 16.39157 14 01 45.19 -11 45 15.3 20.1 V G96 – Mt. Lemmon Survey MPS 792694
2017 04 20.43362 13 59 12.584 -11 29 18.37 20.5 w F51 – Pan-STARRS 1, Haleakala MPS 794569
2017 04 20.44468 13 59 12.152 -11 29 15.80 20.5 w F51 – Pan-STARRS 1, Haleakala MPS 794569
2017 04 20.45569 13 59 11.720 -11 29 13.14 20.5 w F51 – Pan-STARRS 1, Haleakala MPS 794569
2017 04 20.46677 13 59 11.285 -11 29 10.49 20.3 w F51 – Pan-STARRS 1, Haleakala MPS 794569
2017 04 27.36782 13 54 50.054 -11 01 49.92 20.5 w F51 – Pan-STARRS 1, Haleakala MPS 794569
2017 04 27.37817 13 54 49.655 -11 01 47.62 20.5 w F51 – Pan-STARRS 1, Haleakala MPS 794569
2017 04 27.38849 13 54 49.260 -11 01 45.05 20.5 w F51 – Pan-STARRS 1, Haleakala MPS 794569
